Total_Precipitation_Accumulation
0.19 0.18 0.26 0.45 0.58 0.52 0.55 0.64 0.87 0.76 0.61 0.55 0.52 0.54 0.55 0.57 0.60 0.57 0.58 0.57 0.56 0.55 0.57 0.63 0.63 0.61 0.65 0.72 0.83 0.98 1.06 0.94 0.80 0.68 0.58 0.53 0.56 0.53 0.54 0.61 0.64 0.71 0.76 0.87
0.05 0.08 0.16 0.39 0.50 0.53 0.53 0.50 0.50 0.42 0.40 0.31 0.30 0.35 0.34 0.34 0.37 0.34 0.33 0.33 0.31 0.28 0.28 0.33 0.33 0.35 0.40 0.48 0.62 0.85 0.93 0.81 0.64 0.56 0.53 0.49 0.48 0.45 0.44 0.47 0.53 0.58 0.64 0.80
0.06 0.08 0.16 0.39 0.42 0.47 0.36 0.21 0.18 0.23 0.24 0.17 0.19 0.27 0.26 0.28 0.30 0.26 0.24 0.24 0.24 0.23 0.20 0.20 0.20 0.23 0.31 0.37 0.50 0.60 0.63 0.58 0.48 0.42 0.40 0.39 0.38 0.38 0.41 0.43 0.47 0.52 0.56 0.73
0.10 0.13 0.35 0.60 0.46 0.39 0.31 0.17 0.11 0.11 0.11 0.12 0.16 0.21 0.20 0.23 0.28 0.25 0.21 0.21 0.21 0.21 0.20 0.21 0.22 0.23 0.33 0.37 0.39 0.45 0.52 0.51 0.44 0.39 0.36 0.36 0.34 0.36 0.44 0.45 0.44 0.49 0.55 0.59
0.19 0.21 0.38 0.46 0.31 0.26 0.34 0.33 0.12 0.08 0.08 0.10 0.12 0.15 0.13 0.14 0.18 0.17 0.14 0.13 0.13 0.13 0.12 0.12 0.12 0.11 0.14 0.17 0.23 0.27 0.30 0.35 0.34 0.29 0.31 0.34 0.34 0.39 0.43 0.44 0.48 0.50 0.55 0.58
0.25 0.27 0.38 0.31 0.14 0.11 0.23 0.43 0.17 0.06 0.05 0.04 0.05 0.09 0.06 0.06 0.06 0.06 0.04 0.03 0.03 0.04 0.04 0.04 0.03 0.03 0.04 0.05 0.06 0.09 0.10 0.14 0.19 0.19 0.23 0.29 0.38 0.44 0.42 0.41 0.47 0.48 0.47 0.47
0.39 0.49 0.63 0.42 0.18 0.13 0.30 0.40 0.15 0.04 0.01 0.01 0.01 0.02 0.02 0.04 0.03 0.02 0.01 0.01 0.01 0.01 0.01 0.02 0.02 0.01 0.02 0.02 0.02 0.02 0.02 0.04 0.07 0.11 0.17 0.26 0.33 0.32 0.33 0.36 0.40 0.41 0.44 0.44
0.56 0.72 0.89 0.57 0.34 0.30 0.27 0.14 0.06 0.01 0.00 0.00 0.01 0.01 0.01 0.02 0.03 0.01 0.00 0.00 0.00 0.00 0.00 0.00 0.00 0.00 0.00 0.00 0.00 0.00 0.01 0.01 0.02 0.04 0.07 0.13 0.20 0.23 0.26 0.30 0.32 0.32 0.33 0.34
0.61 0.62 0.58 0.41 0.30 0.20 0.15 0.09 0.02 0.00 0.00 0.00 0.00 0.00 0.00 0.01 0.02 0.01 0.00 0.00 0.00 0.00 0.00 0.00 0.00 0.00 0.00 0.00 0.00 0.00 0.00 0.00 0.01 0.01 0.02 0.06 0.12 0.17 0.21 0.27 0.30 0.28 0.26 0.29
0.19 0.21 0.20 0.16 0.11 0.07 0.06 0.05 0.01 0.00 0.00 0.00 0.00 0.00 0.00 0.00 0.01 0.01 0.01 0.00 0.00 0.00 0.00 0.00 0.00 0.00 0.00 0.00 0.00 0.00 0.00 0.00 0.01 0.01 0.01 0.03 0.06 0.13 0.21 0.24 0.23 0.24 0.26 0.28
0.04 0.05 0.06 0.07 0.05 0.03 0.03 0.02 0.01 0.00 0.00 0.00 0.00 0.00 0.00 0.00 0.01 0.01 0.01 0.00 0.00 0.00 0.00 0.00 0.00 0.00 0.00 0.00 0.00 0.00 0.00 0.00 0.00 0.01 0.02 0.02 0.02 0.06 0.13 0.16 0.15 0.18 0.24 0.28
0.02 0.01 0.02 0.04 0.02 0.01 0.02 0.01 0.00 0.00 0.00 0.00 0.00 0.00 0.00 0.00 0.00 0.01 0.01 0.00 0.00 0.00 0.00 0.00 0.00 0.00 0.00 0.00 0.00 0.00 0.00 0.00 0.01 0.01 0.02 0.02 0.02 0.04 0.06 0.06 0.08 0.09 0.11 0.15
0.02 0.00 0.00 0.01 0.01 0.00 0.01 0.00 0.00 0.00 0.00 0.00 0.00 0.00 0.00 0.00 0.00 0.01 0.01 0.00 0.00 0.00 0.00 0.00 0.00 0.00 0.00 0.00 0.00 0.00 0.00 0.00 0.01 0.01 0.02 0.02 0.03 0.06 0.06 0.04 0.03 0.03 0.04 0.05
0.01 0.01 0.00 0.00 0.00 0.00 0.00 0.00 0.00 0.00 0.00 0.00 0.00 0.00 0.00 0.00 0.00 0.00 0.01 0.01 0.00 0.00 0.00 0.00 0.00 0.00 0.01 0.01 0.00 0.01 0.01 0.01 0.01 0.02 0.03 0.03 0.05 0.08 0.14 0.17 0.13 0.05 0.03 0.03
0.02 0.01 0.01 0.01 0.00 0.00 0.00 0.00 0.00 0.00 0.00 0.00 0.00 0.00 0.00 0.00 0.00 0.00 0.00 0.01 0.00 0.00 0.00 0.00 0.00 0.00 0.01 0.01 0.01 0.01 0.01 0.02 0.02 0.05 0.05 0.06 0.07 0.12 0.15 0.15 0.12 0.07 0.05 0.04
0.05 0.02 0.02 0.02 0.01 0.00 0.00 0.00 0.00 0.00 0.00 0.00 0.00 0.00 0.00 0.00 0.00 0.00 0.00 0.00 0.00 0.00 0.00 0.00 0.00 0.00 0.00 0.01 0.00 0.01 0.01 0.01 0.02 0.05 0.06 0.05 0.06 0.08 0.10 0.10 0.08 0.07 0.07 0.07
0.05 0.06 0.04 0.02 0.01 0.00 0.00 0.00 0.00 0.00 0.00 0.00 0.00 0.00 0.00 0.00 0.00 0.00 0.00 0.00 0.00 0.01 0.00 0.00 0.00 0.00 0.00 0.00 0.00 0.01 0.01 0.01 0.02 0.03 0.06 0.06 0.06 0.05 0.06 0.08 0.07 0.06 0.06 0.05
0.03 0.03 0.03 0.03 0.02 0.01 0.00 0.00 0.00 0.00 0.00 0.00 0.00 0.00 0.00 0.00 0.00 0.00 0.00 0.00 0.00 0.01 0.01 0.00 0.00 0.00 0.00 0.01 0.01 0.01 0.01 0.02 0.02 0.05 0.07 0.08 0.07 0.06 0.07 0.08 0.07 0.06 0.07 0.07
0.02 0.02 0.02 0.02 0.02 0.02 0.01 0.00 0.00 0.00 0.00 0.00 0.00 0.00 0.00 0.00 0.01 0.01 0.01 0.01 0.01 0.02 0.02 0.01 0.01 0.01 0.01 0.01 0.01 0.01 0.01 0.02 0.02 0.04 0.06 0.06 0.07 0.07 0.07 0.08 0.09 0.08 0.08 0.08
0.05 0.04 0.04 0.03 0.02 0.02 0.01 0.01 0.01 0.01 0.00 0.00 0.01 0.01 0.01 0.01 0.01 0.01 0.01 0.01 0.02 0.03 0.03 0.04 0.04 0.04 0.03 0.03 0.03 0.03 0.04 0.05 0.05 0.07 0.07 0.07 0.08 0.09 0.09 0.09 0.09 0.09 0.10 0.12
0.05 0.04 0.04 0.03 0.02 0.01 0.01 0.01 0.01 0.01 0.01 0.01 0.02 0.02 0.02 0.02 0.01 0.01 0.01 0.01 0.01 0.01 0.02 0.04 0.05 0.06 0.06 0.08 0.08 0.07 0.07 0.08 0.08 0.09 0.09 0.10 0.09 0.10 0.10 0.10 0.11 0.12 0.13 0.14
0.03 0.02 0.02 0.02 0.01 0.01 0.01 0.01 0.01 0.01 0.02 0.03 0.03 0.03 0.02 0.02 0.01 0.01 0.01 0.01 0.01 0.02 0.03 0.04 0.04 0.05 0.08 0.10 0.08 0.08 0.08 0.08 0.08 0.09 0.10 0.12 0.13 0.14 0.15 0.16 0.16 0.15 0.15 0.16
0.03 0.02 0.02 0.02 0.02 0.02 0.02 0.02 0.02 0.02 0.03 0.04 0.04 0.03 0.03 0.03 0.03 0.03 0.03 0.03 0.02 0.03 0.03 0.03 0.04 0.07 0.11 0.08 0.06 0.05 0.05 0.06 0.07 0.08 0.10 0.12 0.14 0.16 0.17 0.17 0.18 0.19 0.20 0.21
0.04 0.04 0.03 0.03 0.03 0.03 0.04 0.04 0.04 0.05 0.05 0.06 0.06 0.06 0.06 0.07 0.07 0.07 0.07 0.07 0.06 0.07 0.06 0.06 0.07 0.12 0.13 0.07 0.06 0.07 0.07 0.08 0.08 0.09 0.10 0.12 0.13 0.15 0.18 0.19 0.20 0.21 0.23 0.26
0.05 0.03 0.03 0.03 0.03 0.03 0.03 0.03 0.03 0.03 0.04 0.05 0.06 0.07 0.07 0.07 0.09 0.10 0.10 0.10 0.11 0.12 0.12 0.13 0.15 0.16 0.14 0.11 0.11 0.11 0.12 0.12 0.13 0.15 0.14 0.15 0.17 0.19 0.21 0.24 0.27 0.28 0.28 0.30
0.06 0.04 0.03 0.03 0.04 0.04 0.04 0.04 0.04 0.04 0.04 0.04 0.05 0.06 0.07 0.08 0.09 0.10 0.12 0.13 0.15 0.16 0.17 0.18 0.18 0.19 0.18 0.18 0.17 0.18 0.18 0.18 0.19 0.19 0.18 0.20 0.21 0.22 0.24 0.26 0.30 0.33 0.35 0.36
0.07 0.05 0.04 0.05 0.05 0.05 0.05 0.05 0.06 0.06 0.07 0.07 0.06 0.06 0.07 0.07 0.08 0.09 0.11 0.13 0.15 0.18 0.20 0.21 0.22 0.22 0.21 0.21 0.22 0.23 0.22 0.22 0.22 0.23 0.24 0.25 0.26 0.27 0.28 0.30 0.33 0.35 0.37 0.39